STARLINK-4729 (53804 NORAD) Tracking and Keplerian Element Data

This shows tracking and keplerian element data for the satellite.

Feedback or suggestion? Click here.




ElementValue
Catalog53804
NameSTARLINK-4729
Epoch Orbit130
Epoch Day324.91667824
Epoch Year2022
RAAN276.4286
Inclination53.2138
Eccentricity0.000366
Argument of Perigee6.902
Mean Anonmoly272.745
Mean Motion15.73209222
Decay Rate-0.0001612
L11 53804U 22111AH 22324.91667824 -.00016120 00000+0 -11054-3 0 9998
L22 53804 53.2138 276.4286 0003660 6.9020 272.7450 15.73209222 1305



Live tracking and technical data element details for STARLINK-4729 (NORAD 53804). STARLINK-4729 can be tracked NOW for your location showing map with azimuth and elevation plus other details from your city location.







IsCatalogInMostPopularTable: catalog: 53804, numindb: -1

Insert: records affected: 1


GetName: 53804 STARLINK-4729

Hit Count: inserted at: Mon, 28 Nov 2022 04:23:19 GMT